User: anonymous   Login
Location: St. Louis
(38.6270°N, 90.1994°W)
Time: 00:02:01
(UTC-06:00)
Language:

MOZHAYETS 4 - Orbit

View from above orbital plane
View from above orbital plane
View from above satellite
View from above satellite

Ground track
Ground track

The orbit data is extracted from the following two-line orbital elements,

1 27939U 03042A   22026.68578198  .00000304  00000-0  62846-4 0  9990
2 27939  98.1679 167.6614 0011644 297.9186  62.0838 14.67113438980250
Epoch (UTC): 26 January 2022 16:27:31
Eccentricity: 0.0011644
inclination: 98.1679°
perigee height: 662 km
apogee height: 678 km
right ascension of ascending node: 167.6614°
argument of perigee: 297.9186°
revolutions per day: 14.67113438
mean anomaly at epoch: 62.0838°
orbit number at epoch: 98025

The dashed part of the orbit path shows where the satellite is in the earth's shadow,  

DLR